User: anonymous   Login
Location: Unspecified
(0.0000°N, 0.0000°E)
Time: 07:44:28
(UTC+00:00)
Language:

ESSA 3 - Orbit

View from above orbital plane
View from above orbital plane
View from above satellite
View from above satellite

Ground track
Ground track

The orbit data is extracted from the following two-line orbital elements,

1  2435U 66087A   18112.76604174 -.00000046 +00000-0 -30257-4 0  9992
2  2435 101.0120 172.7800 0063584 240.7703 230.7197 12.56840032364952
Epoch (UTC): 22 April 2018 18:23:06
Eccentricity: 0.0063584
inclination: 101.0120°
perigee height: 1386 km
apogee height: 1485 km
right ascension of ascending node: 172.7800°
argument of perigee: 240.7703°
revolutions per day: 12.56840032
mean anomaly at epoch: 230.7197°
orbit number at epoch: 36495

The dashed part of the orbit path shows where the satellite is in the earth's shadow,  

DLR